GW4032 Weather Reports


Display with metric or nautical units.
time (UTC)temp
F
wind
direction
speed
MPH
gust
MPH
rain 1hr
in
rain 24hr
in
rain mn
in
humidity
%
barometer
mb
20260505054814 67 226 3.0 4.0 0.00 0.00 0.00 67 995.0
20260505054314 67 207 5.0 6.0 0.00 0.00 0.00 66 995.0
20260505053814 67 203 5.0 5.0 0.00 0.00 0.00 66 995.0
20260505053314 67 205 5.0 5.0 0.00 0.00 0.00 65 996.0
20260505052814 67 183 6.0 7.0 0.00 0.00 0.00 65 996.0
20260505052315 67 195 4.0 5.0 0.00 0.00 0.00 66 996.0
20260505051814 67 200 5.0 5.0 0.00 0.00 0.00 66 996.0
20260505051314 67 212 3.0 4.0 0.00 0.00 0.00 66 996.0
20260505050814 67 180 5.0 6.0 0.00 0.00 0.00 65 996.0
20260505050315 68 196 4.0 5.0 0.00 0.00 0.00 65 996.0
20260505041314 68 204 5.0 5.0 0.00 0.00 0.00 64 997.0
20260505040819 68 202 5.0 6.0 0.00 0.00 0.00 64 997.0
20260505040314 68 198 5.0 6.0 0.00 0.00 0.00 64 997.0
20260505035814 68 204 5.0 6.0 0.00 0.00 0.00 63 997.0
20260505035314 69 207 5.0 6.0 0.00 0.00 0.00 63 997.0
20260505034815 68 198 5.0 7.0 0.00 0.00 0.00 64 997.0
20260505034314 68 197 4.0 5.0 0.00 0.00 0.00 64 997.0
20260505033815 69 205 6.0 7.0 0.00 0.00 0.00 63 997.0
20260505033314 69 209 5.0 5.0 0.00 0.00 0.00 63 997.0
20260505032814 69 200 5.0 5.0 0.00 0.00 0.00 63 997.0
20260505032317 69 209 7.0 8.0 0.00 0.00 0.00 62 997.0
20260505031814 69 182 7.0 7.0 0.00 0.00 0.00 62 997.0
20260505031314 69 197 5.0 5.0 0.00 0.00 0.00 63 997.0
20260505030814 69 212 6.0 6.0 0.00 0.00 0.00 62 997.0
20260505030314 69 206 5.0 7.0 0.00 0.00 0.00 62 997.0
20260505025814 69 203 4.0 5.0 0.00 0.00 0.00 62 997.0
20260505025314 69 202 5.0 5.0 0.00 0.00 0.00 61 997.0
20260505024814 69 216 7.0 9.0 0.00 0.00 0.00 61 996.0
20260505024314 69 212 8.0 8.0 0.00 0.00 0.00 61 996.0
20260505023814 69 196 5.0 5.0 0.00 0.00 0.00 61 996.0
20260505023315 70 222 5.0 6.0 0.00 0.00 0.00 61 996.0
20260505022815 70 202 6.0 7.0 0.00 0.00 0.00 60 996.0
20260505022314 70 201 5.0 6.0 0.00 0.00 0.00 59 996.0
20260505021814 70 199 5.0 9.0 0.00 0.00 0.00 59 996.0
20260505021315 70 196 7.0 7.0 0.00 0.00 0.00 59 996.0
20260505020814 70 201 4.0 4.0 0.00 0.00 0.00 59 996.0
20260505020314 71 213 7.0 7.0 0.00 0.00 0.00 58 996.0
20260505015814 71 219 5.0 6.0 0.00 0.00 0.00 58 996.0
20260505015314 71 204 4.0 6.0 0.00 0.00 0.00 58 996.0
20260505014814 71 206 6.0 6.0 0.00 0.00 0.00 58 995.0
20260505014314 71 195 7.0 8.0 0.00 0.00 0.00 58 995.0
20260505013815 71 196 7.0 8.0 0.00 0.00 0.00 59 995.0
20260505013314 71 193 5.0 7.0 0.00 0.00 0.00 58 995.0
20260505012814 71 199 4.0 6.0 0.00 0.00 0.00 58 995.0
20260505012314 71 201 3.0 3.0 0.00 0.00 0.00 57 995.0
20260505011816 71 204 3.0 3.0 0.00 0.00 0.00 57 995.0
20260505011319 72 196 3.0 4.0 0.00 0.00 0.00 56 995.0
20260505010814 72 180 5.0 5.0 0.00 0.00 0.00 56 995.0
20260505010315 72 203 6.0 6.0 0.00 0.00 0.00 55 995.0
20260505005814 73 182 6.0 6.0 0.00 0.00 0.00 55 995.0
20260505005314 72 199 5.0 6.0 0.00 0.00 0.00 55 995.0
20260505004815 73 213 5.0 5.0 0.00 0.00 0.00 54 995.0
20260505004315 73 194 6.0 7.0 0.00 0.00 0.00 54 995.0
20260505003815 73 198 7.0 7.0 0.00 0.00 0.00 54 995.0
20260505003315 73 197 5.0 5.0 0.00 0.00 0.00 53 995.0
20260505002814 73 177 4.0 7.0 0.00 0.00 0.00 53 995.0
20260505002314 74 180 4.0 4.0 0.00 0.00 0.00 53 995.0
20260505001814 74 208 5.0 6.0 0.00 0.00 0.00 52 995.0
20260505001314 74 224 6.0 7.0 0.00 0.00 0.00 52 995.0
20260505000814 74 212 8.0 10.0 0.00 0.00 0.00 51 995.0
20260505000315 75 190 8.0 8.0 0.00 0.00 0.00 51 995.0
20260504235814 75 186 8.0 9.0 0.00 0.00 0.00 50 995.0
20260504235314 75 203 6.0 6.0 0.00 0.00 0.00 50 995.0
20260504234814 76 190 6.0 7.0 0.00 0.00 0.00 49 995.0
20260504234314 76 227 6.0 11.0 0.00 0.00 0.00 48 995.0
20260504233814 76 180 12.0 12.0 0.00 0.00 0.00 48 995.0
20260504233315 76 219 11.0 11.0 0.00 0.00 0.00 48 995.0
20260504232814 77 168 11.0 16.0 0.00 0.00 0.00 47 995.0
20260504232316 77 169 9.0 10.0 0.00 0.00 0.00 47 995.0
20260504231825 77 219 7.0 7.0 0.00 0.00 0.00 47 995.0
20260504231314 78 159 9.0 11.0 0.00 0.00 0.00 47 995.0
20260504230814 78 199 12.0 17.0 0.00 0.00 0.00 46 995.0
20260504230314 78 195 10.0 10.0 0.00 0.00 0.00 46 995.0
20260504225816 79 203 8.0 8.0 0.00 0.00 0.00 45 995.0
20260504225314 78 180 11.0 13.0 0.00 0.00 0.00 44 995.0
20260504224814 78 221 19.0 22.0 0.00 0.00 0.00 44 995.0
20260504224314 79 200 16.0 17.0 0.00 0.00 0.00 44 995.0
20260504223815 79 197 7.0 7.0 0.00 0.00 0.00 45 995.0
20260504223314 80 203 9.0 9.0 0.00 0.00 0.00 44 995.0
20260504222814 80 217 9.0 10.0 0.00 0.00 0.00 43 995.0
20260504222316 81 170 5.0 9.0 0.00 0.00 0.00 42 995.0
20260504221814 81 177 4.0 9.0 0.00 0.00 0.00 42 995.0
20260504221315 80 215 7.0 11.0 0.00 0.00 0.00 42 995.0
20260504220816 81 189 4.0 5.0 0.00 0.00 0.00 42 995.0
20260504220314 80 211 8.0 8.0 0.00 0.00 0.00 42 995.0
20260504215814 80 194 14.0 15.0 0.00 0.00 0.00 42 995.0
20260504215315 81 201 8.0 18.0 0.00 0.00 0.00 44 995.0
20260504214815 80 206 9.0 11.0 0.00 0.00 0.00 43 995.0
20260504214314 80 218 12.0 15.0 0.00 0.00 0.00 42 995.0
20260504213814 80 272 12.0 19.0 0.00 0.00 0.00 43 995.0
20260504213314 80 194 13.0 13.0 0.00 0.00 0.00 43 995.0
20260504212814 80 206 7.0 10.0 0.00 0.00 0.00 43 995.0
20260504212315 80 180 13.0 16.0 0.00 0.00 0.00 42 995.0
20260504211814 80 190 14.0 17.0 0.00 0.00 0.00 43 995.0
20260504211314 80 187 8.0 16.0 0.00 0.00 0.00 43 995.0
20260504210814 80 216 15.0 15.0 0.00 0.00 0.00 40 995.0
20260504210314 81 238 8.0 8.0 0.00 0.00 0.00 41 995.0
20260504205814 81 217 6.0 15.0 0.00 0.00 0.00 43 996.0
20260504205314 79 171 12.0 13.0 0.00 0.00 0.00 43 996.0
20260504204814 81 196 10.0 15.0 0.00 0.00 0.00 41 996.0
20260504204314 83 238 3.0 5.0 0.00 0.00 0.00 42 996.0
20260504203815 80 202 15.0 16.0 0.00 0.00 0.00 42 996.0
20260504203314 80 186 11.0 17.0 0.00 0.00 0.00 43 996.0
20260504202815 80 182 12.0 12.0 0.00 0.00 0.00 42 996.0
20260504202315 81 205 9.0 13.0 0.00 0.00 0.00 43 996.0
20260504201814 81 183 7.0 9.0 0.00 0.00 0.00 40 996.0
20260504201314 82 201 10.0 10.0 0.00 0.00 0.00 42 997.0
20260504200814 81 222 5.0 8.0 0.00 0.00 0.00 43 997.0
20260504200314 82 226 7.0 9.0 0.00 0.00 0.00 44 997.0
20260504195815 81 222 13.0 21.0 0.00 0.00 0.00 42 997.0
20260504195314 81 210 15.0 15.0 0.00 0.00 0.00 41 997.0
20260504194815 80 225 16.0 18.0 0.00 0.00 0.00 42 997.0
20260504194315 82 213 5.0 5.0 0.00 0.00 0.00 42 997.0
20260504193814 81 252 8.0 14.0 0.00 0.00 0.00 42 997.0
20260504193314 81 240 6.0 11.0 0.00 0.00 0.00 44 997.0
20260504192814 80 201 15.0 21.0 0.00 0.00 0.00 42 997.0
20260504192314 80 205 9.0 11.0 0.00 0.00 0.00 43 997.0
20260504191816 80 219 16.0 16.0 0.00 0.00 0.00 41 997.0
20260504191314 81 203 9.0 12.0 0.00 0.00 0.00 42 997.0
20260504190814 79 200 14.0 20.0 0.00 0.00 0.00 43 997.0
20260504190315 80 198 8.0 21.0 0.00 0.00 0.00 42 997.0
20260504185814 80 231 10.0 11.0 0.00 0.00 0.00 41 997.0
20260504185314 81 180 8.0 16.0 0.00 0.00 0.00 42 997.0
20260504184814 81 198 9.0 13.0 0.00 0.00 0.00 41 997.0
20260504184314 80 202 9.0 12.0 0.00 0.00 0.00 42 997.0
20260504183814 80 245 10.0 16.0 0.00 0.00 0.00 42 997.0
20260504183315 80 231 9.0 11.0 0.00 0.00 0.00 41 997.0
20260504182815 80 216 10.0 15.0 0.00 0.00 0.00 41 997.0
20260504182316 78 196 12.0 25.0 0.00 0.00 0.00 41 997.0
20260504181814 80 162 6.0 7.0 0.00 0.00 0.00 42 997.0
20260504181316 79 200 11.0 16.0 0.00 0.00 0.00 42 997.0
20260504180814 78 212 19.0 19.0 0.00 0.00 0.00 41 997.0
20260504180314 79 228 12.0 13.0 0.00 0.00 0.00 41 997.0
20260504175814 79 206 10.0 13.0 0.00 0.00 0.00 41 997.0
20260504175315 81 213 6.0 7.0 0.00 0.00 0.00 41 997.0
20260504174816 79 185 14.0 16.0 0.00 0.00 0.00 42 997.0
20260504174316 78 203 16.0 16.0 0.00 0.00 0.00 41 997.0
20260504173815 78 180 11.0 11.0 0.00 0.00 0.00 41 997.0
20260504173315 78 214 10.0 12.0 0.00 0.00 0.00 42 997.0
20260504172814 78 194 14.0 19.0 0.00 0.00 0.00 43 997.0
20260504172314 77 213 14.0 22.0 0.00 0.00 0.00 42 998.0
20260504171815 78 208 9.0 13.0 0.00 0.00 0.00 43 998.0
20260504171317 78 201 10.0 10.0 0.00 0.00 0.00 44 998.0
20260504170814 78 205 15.0 15.0 0.00 0.00 0.00 42 998.0
20260504170317 78 172 12.0 13.0 0.00 0.00 0.00 43 998.0
20260504160314 75 215 11.0 17.0 0.00 0.00 0.00 45 998.0
20260504150816 73 223 9.0 9.0 0.00 0.00 0.00 47 999.0
20260504150317 73 185 6.0 6.0 0.00 0.00 0.00 48 999.0
20260504141316 70 184 7.0 7.0 0.00 0.00 0.00 50 1000.0
20260504140816 70 300 7.0 7.0 0.00 0.00 0.00 51 1000.0
20260504140314 70 243 4.0 5.0 0.00 0.00 0.00 52 1000.0
20260504130814 66 194 6.0 8.0 0.00 0.00 0.00 58 1000.0
20260504130314 65 215 4.0 6.0 0.00 0.00 0.00 57 1000.0
20260504120314 62 198 4.0 4.0 0.00 0.00 0.00 62 999.0
20260504110315 63 212 2.0 3.0 0.00 0.00 0.00 60 999.0
20260504100317 65 209 8.0 9.0 0.00 0.00 0.00 58 999.0
20260504081814 64 234 4.0 7.0 0.00 0.00 0.00 63 1000.0
20260504081314 64 198 5.0 5.0 0.00 0.00 0.00 63 1000.0
20260504080814 65 195 6.0 8.0 0.00 0.00 0.00 62 1000.0
20260504080316 65 180 4.0 4.0 0.00 0.00 0.00 62 1000.0
20260504070315 66 192 5.0 7.0 0.00 0.00 0.00 61 1000.0